This is the latest recevied weather packets stored in our database for station/object N2ZVN. If no packets are shown the sender has not sent any weather packets the latest 10 day(s).
| Time | Temp. | Humidity | Pressure | Rain* | Wind** | Luminosity | Snow |
|---|---|---|---|---|---|---|---|
| 1788610743 | 20° C | 85% | 1015.6 hPa | 0 mm | - | 95 W/m² | - |
| 1788610439 | 18.89° C | 89% | 1015.6 hPa | 0 mm | - | 86 W/m² | - |
| 1788610138 | 17.78° C | 92% | 1015.6 hPa | 0 mm | - | 81 W/m² | - |
| 1788609838 | 17.78° C | 93% | 1015.7 hPa | 0 mm | - | 75 W/m² | - |
| 1788609533 | 17.22° C | 93% | 1015.5 hPa | 0 mm | - | 60 W/m² | - |
| 1788609232 | 17.22° C | 96% | 1015.6 hPa | 0 mm | - | 32 W/m² | - |
| 1788608927 | 16.67° C | 98% | 1015.4 hPa | 0 mm | - | 25 W/m² | - |
| 1788608626 | 16.67° C | 99% | 1015.4 hPa | 0 mm | - | 33 W/m² | - |
| 1788608326 | 16.11° C | 99% | 1015.3 hPa | 0 mm | - | 40 W/m² | - |
| 1788608022 | 15.56° C | 99% | 1015.2 hPa | 0 mm | - | 37 W/m² | - |
| 1788607717 | 15.56° C | 99% | 1015.1 hPa | 0 mm | - | 32 W/m² | - |
| 1788607412 | 15° C | 99% | 1014.8 hPa | 0 mm | - | 17 W/m² | - |
| 1788607107 | 15° C | 99% | 1014.8 hPa | 0 mm | - | 14 W/m² | - |
| 1788606807 | 15° C | 99% | 1015.1 hPa | 0 mm | - | 12 W/m² | - |
| 1788606506 | 15° C | 99% | 1015.4 hPa | 0 mm | - | 10 W/m² | - |
| 1788606200 | 15° C | 99% | 1015 hPa | 0 mm | - | 9 W/m² | - |
| 1788605896 | 15° C | 99% | 1014.9 hPa | 0 mm | - | 7 W/m² | - |
| 1788605595 | 15° C | 99% | 1015.2 hPa | 0 mm | - | 5 W/m² | - |
| 1788605295 | 15° C | 99% | 1015 hPa | 0 mm | - | 4 W/m² | - |
| 1788604992 | 15° C | 99% | 1015.4 hPa | 0 mm | - | 2 W/m² | - |
| 1788604691 | 15° C | 99% | 1014.8 hPa | 0 mm | - | 1 W/m² | - |
| 1788604387 | 15° C | 99% | 1015 hPa | 0 mm | - | 1 W/m² | - |
| 1788604082 | 15° C | 99% | 1014.8 hPa | 0 mm | - | 0 W/m² | - |
| 1788603779 | 15° C | 99% | 1014.6 hPa | 0 mm | - | 0 W/m² | - |
| 1788603478 | 15° C | 99% | 1014.9 hPa | 0 mm | - | 0 W/m² | - |
* Rain latest hour (hover to see other rain measurements)
** Current wind speed in m/s (hover to see current wind gust speed)